Regional Weather Roundup
Issued by NWS

Home | Current Version | Previous Version | Graphics & Text | Print | Product List | Glossary Off
Versions: 1 2 3 4 5 6 7 8 9 10 11 12 13 14 15 16 17 18 19 20 21 22 23 24 25 26 27 28 29 30 31 32 33 34 35 36 37 38 39 40 41 42 43 44 45 46 47 48 49 50

000
ASUS43 KMKX 251521
RWRWI

WISCONSIN REGIONAL WEATHER ROUNDUP
NATIONAL WEATHER SERVICE MILWAUKEE/SULLIVAN WI
900 AM CST TUE NOV 25 2014

NOTE: "FAIR" INDICATES FEW OR NO CLOUDS BELOW 12,000 FEET WITH NO
SIGNIFICANT WEATHER AND/OR OBSTRUCTIONS TO VISIBILITY.

WIZ001-002-006>008-014>016-023>028-251600-
NORTHWEST WISCONSIN

CITY           SKY/WX    TMP DP  RH WIND       PRES   REMARKS
SUPERIOR ARPT  SUNNY     14   8  79 W5        30.01S WCI   6
ASHLAND        SUNNY     15  11  83 W8        29.99R WCI   4
HAYWARD        CLOUDY    11   7  84 SW5       29.98R WCI   3
SIREN          SUNNY     12   9  85 W5        30.02R WCI   5
CUMBERLAND     FLURRIES  12   9  85 W5        29.99R WCI   4
RICE LAKE      LGT SNOW  14   9  81 W5        30.01R WCI   7
CHETEK         LGT SNOW  15   9  80 CALM      30.00R
LADYSMITH      LGT SNOW  15  10  80 W8        29.99R WCI   4
EAU CLAIRE     CLOUDY    16   9  74 NW6       30.02R WCI   7
MENOMONIE      LGT SNOW  16  11  80 SW7       30.03R WCI   6
NEW RICHMOND   FLURRIES  13   8  83 W7        30.03R WCI   2
OSCEOLA        SUNNY     12  10  92 W7        30.07R WCI   2
$$

WIZ003>005-009-010-017-018-251600-
NORTH CENTRAL WISCONSIN

CITY           SKY/WX    TMP DP  RH WIND       PRES   REMARKS
MANITOWISH WTR LGT SNOW  15  11  86 W6        29.89R WCI   6
ARBOR VITAE    LGT SNOW  17  12  83 NW7       29.89R WCI   7
WOODRUFF       LGT SNOW  17  12  83 NW7       29.89R WCI   7
RHINELANDER    LGT SNOW  15  11  83 W13       29.89R FOG     WCI   1
EAGLE RIVER    LGT SNOW  18  11  74 NW7       29.87R WCI   9
LAND O LAKES   LGT SNOW  19  15  84 N3        29.87R
PHILLIPS       LGT SNOW  15  11  83 NW6       29.92R WCI   6
TOMAHAWK       SUNNY     15  10  81 W8        29.92R WCI   4
MEDFORD        LGT SNOW  15  11  83 W8        29.94R WCI   4
MERRILL        SUNNY     17  10  73 NW9       29.93R WCI   6
$$

WIZ029-030-035-036-043>047-251600-
CENTRAL WISCONSIN

CITY           SKY/WX    TMP DP  RH WIND       PRES   REMARKS
WAUSAU         MOSUNNY   18  11  74 W13       29.93R WCI   5
MOSINEE        SUNNY     18  16  93 NW9       29.95R WCI   6
MARSHFIELD     FLURRIES  17  11  77 W9        29.96R WCI   6
STEVENS POINT  MOSUNNY   18  13  80 W5        29.97R WCI  11
WAUPACA        CLOUDY    24  17  75 NW9       29.98R WCI  14
WAUTOMA        CLOUDY    21  15  78 NW9       30.00R WCI  11
WISC RAPIDS    LGT SNOW  19  11  70 W12       30.00R WCI   7
CAMP DOUGLAS   FLURRIES  18  16  93 W8        30.02R WCI   7
$$

WIZ011>013-019>022-031-037>040-048>050-251600-
NORTHEAST WISCONSIN

CITY           SKY/WX    TMP DP  RH WIND       PRES   REMARKS
ANTIGO         LGT SNOW  17  13  84 W12       29.90R WCI   4
SHAWANO        CLOUDY    25  19  78 W9        29.94R WCI  15
OCONTO         CLOUDY    23  21  92 W5        29.93R WCI  17
STURGEON BAY   CLOUDY    25  18  74 NW13      29.92R WCI  13
GREEN BAY      PTSUNNY   24  19  81 W12       29.95R WCI  13
MANITOWOC      FLURRIES  25  22  88 NW13      29.95R WCI  14
APPLETON       PTSUNNY   21  19  93 W9        29.95R WCI  11
CLINTONVILLE   FLURRIES  23  19  86 W7        29.95R WCI  15
OSHKOSH        PTSUNNY   22  15  75 W9        29.97R WCI  12
$$

WIZ032>034-041-042-053>061-251600-
SOUTHWEST WISCONSIN

CITY           SKY/WX    TMP DP  RH WIND       PRES   REMARKS
LA CROSSE      CLOUDY    19  12  74 W8        30.05R WCI   9
SPARTA         LGT SNOW  18  13  80 W6        30.04R WCI  10
VIROQUA        CLOUDY    17  15  93 W8        30.00R WCI   6
BOSCOBEL       CLOUDY    20  13  74 NW6       30.07R WCI  12
PRAIRIE DU CHI PTSUNNY   17  10  73 W7        30.08R WCI   7
PLATTEVILLE    CLOUDY    17  13  84 W12       30.05R WCI   5
$$

WIZ056-057-062-063-064-067-068-251600-
SOUTH CENTRAL WISCONSIN

CITY           SKY/WX    TMP DP  RH WIND       PRES   REMARKS
REEDSBURG      FLURRIES  19  14  82 NW6       30.02R WCI  10
BARABOO/DELLS  FLURRIES  19  14  82 W7        30.01R WCI   9
LONE ROCK      CLOUDY    24  14  65 W9        30.05R WCI  14
MINERAL POINT  FLURRIES  21  16  79 W9        30.02R WCI  11
MADISON        PTSUNNY   20  14  77 W9        30.02R WCI   9
MIDDLETON      CLOUDY    22  16  76 W12       30.03R WCI  10
WATERTOWN      SUNNY     21  16  81 W10       30.00R WCI  10
MONROE         SUNNY     19  16  86 W12       30.02R WCI   7
JANESVILLE     SUNNY     19  14  79 W6        30.03R WCI  11
$$

WIZ051-052-058>065-066-070>072-251600-
SOUTHEAST WISCONSIN

CITY           SKY/WX    TMP DP  RH WIND       PRES   REMARKS
MILWAUKEE      PTSUNNY   26  19  74 W13       30.00R WCI  15
WAUKESHA       CLOUDY    19  18  93 W10G17    30.00R WCI   8
MILWAUKEE/TIMM PTSUNNY   25  18  74 W12G17    30.01R WCI  14
RACINE         CLOUDY    23  17  78 W10       30.03R WCI  12
BURLINGTON     MOSUNNY   20  15  80 W7        30.02R WCI  11
KENOSHA        MOSUNNY   22  16  78 W14       30.02R WCI   9
FOND DU LAC    MOSUNNY   22  16  78 W13       29.98R WCI  10
SHEBOYGAN      PTSUNNY   24  19  81 W13       29.96R WCI  12
WEST BEND      CLOUDY    23  19  86 W10       29.98R WCI  12
JUNEAU         MOSUNNY   20  16  82 W8        30.00R WCI  11
$$

LSZ147-162-251600-
LAKE SUPERIOR

STATION/POSITION TIME  TEMP    WIND        PRES    WAVE
                       AIR SEA DIR/SP/G            HT/PER
                 (UTC) (F)     (DEG/KT/KT) (MB)    (FT/S)
DEVILS ISLAND    1500   19     320/ 11/ 15 1016.3R
PORT WING        1400   18     300/ 11/ 14 1015.2R
SAXON HARBOR     1400   18     230/  4/  9 1014.2R
$$

LMZ867-665-643>646-251600-
LAKE MICHIGAN

STATION/POSITION TIME  TEMP    WIND        PRES    WAVE
                       AIR SEA DIR/SP/G            HT/PER
                 (UTC) (F)     (DEG/KT/KT) (MB)    (FT/S)
CHAMBERS ISLAND  1400   25     300/  6/ 16 1012.2R
N MID LAKE BUOY  1450   29 42  310/ 23/ 27 1011.1R   5/ 5
NORTHPORT PIER   1428   26     300/ 13     1011.9R
ALGOMA LAKESHORE 1343             CALM       N/A
KEWAUNEE LAKESHO 1500   24     300/  8/ 11 1012.7R
SHEBOYGAN LAKESH 1500   24 37  280/ 13/ 17 1015.8R
PORT WASHINGTON  1400   24     280/  7/ 13 1015.6
MILWAUKEE LAKESH 1500   25     280/ 11/ 14   N/A
S MID LAKE BUOY  1450   28 42  270/ 17/ 23 1016.0R   5/ 5
KENOSHA   LAKESH 1500   23     270/ 13/ 20 1016.9R
$$

TC  - TEMPERATURE IN CELSIUS
VSB - VISIBILITY IN STATUTE MILES
WCI - WIND CHILL INDEX
HX  - HEAT INDEX



USA.gov is the U.S. government's official web portal to all federal, state and local government web resources and services.